Regional Weather Roundup
Issued by NWS

Home | Current Version | Previous Version | Text Only | Print | Product List | Glossary On
Versions: 1 2 3 4 5 6 7 8 9 10 11 12 13 14 15 16 17 18 19 20 21 22 23 24 25 26 27 28 29 30 31 32 33 34 35 36 37 38 39 40 41 42 43 44 45 46 47 48 49 50
000
ASUS43 KDTX 091201
RWRMI
MICHIGAN HOURLY REGIONAL WEATHER ROUNDUP
NATIONAL WEATHER SERVICE DETROIT/PONTIAC MI
700 AM EST TUE FEB 09 2016

NOTE: "FAIR" INDICATES FEW OR NO CLOUDS BELOW 12,000 FEET WITH NO
SIGNIFICANT WEATHER AND/OR OBSTRUCTION TO VISIBILITY.

MIZ047>049-052>055-059>063-066>070-074>076-081>083-091300-
SOUTHEAST LOWER MICHIGAN

CITY           SKY/WX    TMP DP  RH WIND       PRES   REMARKS
ADRIAN         CLOUDY    29  26  89 W8        29.58R WCI  21
6HR MIN TEMP:  29; 6HR MAX TEMP:  31; 6HR PCP: TRACE;

ALMA           CLOUDY    27  24  87 W14G21    29.59R WCI  16
6HR MIN TEMP:  27; 6HR MAX TEMP:  33;

ANN ARBOR      LGT SNOW  30  28  92 W9        29.54R FOG     WCI  22
BAD AXE        LGT SNOW  29  28  96 NW14      29.49R WCI  19
CARO           CLOUDY    28  27  93 NW13      29.51R WCI  18
DETROIT CITY   LGT SNOW  31  29  92 W10       29.53R VSB 1   WCI  22
6HR MIN TEMP:  31; 6HR MAX TEMP:  34; 6HR PCP:  0.01;

DETROIT        LGT SNOW  31  29  92 SW12      29.55R VSB 3/4 WCI  22
6HR MIN TEMP:  31; 6HR MAX TEMP:  33; 6HR PCP:  0.02;

FLINT          LGT SNOW  30  26  85 NW10      29.55R FOG     WCI  21
6HR MIN TEMP:  30; 6HR MAX TEMP:  35; 6HR PCP:  0.11;

GROSSE ILE     LGT SNOW  30  28  93 W6        29.54R VSB 1   WCI  24
HILLSDALE      LGT SNOW  28  28  99 W6        29.56R WCI  21
6HR MIN TEMP:  28; 6HR MAX TEMP:  29;

HOWELL         LGT SNOW  31  29  95 NW8       29.54R WCI  23
6HR MIN TEMP:  31; 6HR MAX TEMP:  32;


CITY           SKY/WX    TMP DP  RH WIND       PRES   REMARKS
JACKSON        LGT SNOW  30  27  88 NW13      29.56R FOG     WCI  20
6HR MIN TEMP:  29; 6HR MAX TEMP:  30; 6HR PCP:  0.05;

LAMBERTVILLE   LGT SNOW  29  27  90 W8        29.58R WCI  21
6HR MIN TEMP:  29; 6HR MAX TEMP:  32;

LANSING        CLOUDY    28  24  85 NW14      29.58R WCI  17
6HR MIN TEMP:  28; 6HR MAX TEMP:  32; 6HR PCP:  0.05;

LAPEER         LGT SNOW  29  28  98 NW9G18    29.52R WCI  20
6HR MIN TEMP:  29; 6HR MAX TEMP:  32; 6HR PCP:  0.07;

MASON          LGT SNOW  29  27  92 NW9       29.56R WCI  21
MONROE         LGT SNOW  31  29  92 SW9       29.55S WCI  23
6HR MIN TEMP:  31; 6HR MAX TEMP:  33;

MT. CLEMENS    LGT SNOW  33  32  98 W8        29.50R FOG     WCI  26
6HR MIN TEMP:  33; 6HR MAX TEMP:  34; 6HR PCP:  0.05;

PONTIAC        LGT SNOW  30  27  88 NW14      29.51R VSB 1   WCI  19
6HR MIN TEMP:  30; 6HR MAX TEMP:  32; 6HR PCP:  0.05;

PORT HOPE        N/A     31  30  96 NW21G32   29.45  WCI  18
6HR MIN TEMP:  31; 6HR MAX TEMP:  34;

PORT HURON     LGT SNOW  32  30  93 W5        29.49R WCI  27
TRI CITIES     LGT SNOW  29  24  82 NW18      29.56R WCI  16
6HR MIN TEMP:  29; 6HR MAX TEMP:  34; 6HR PCP:  0.02;

MIDLAND        LGT SNOW  27  24  89 NW13      29.56R WCI  16
TROY           LGT SNOW  34  32  94 W9        29.54R WCI  26
SAGINAW HB     LGT SNOW  30  28  93 NW12      29.55R WCI  21
$$
MIZ043>046-050>051-056>058-064>065-071>073-077>080-091300-
SOUTHWEST LOWER MICHIGAN

CITY           SKY/WX    TMP DP  RH WIND       PRES   REMARKS
BATTLE CREEK   CLOUDY    29  24  82 NW16      29.60R WCI  17
6HR MIN TEMP:  29; 6HR MAX TEMP:  31;

BENTON HARBOR  LGT SNOW  29  23  78 VRB7G17   29.67R WCI  22
6HR MIN TEMP:  29; 6HR MAX TEMP:  31; 6HR PCP:  0.09;

BIG RAPIDS     CLOUDY    24  21  89 N8        29.61R WCI  15
6HR MIN TEMP:  24; 6HR MAX TEMP:  30;

COLDWATER      CLOUDY    30  30  99 W7        29.59R WCI  23
6HR MIN TEMP:  28; 6HR MAX TEMP:  30;

FREMONT        CLOUDY    25  21  86 N15       29.65R WCI  12
HOLLAND        CLOUDY    27  21  78 NW8       29.66R WCI  19
6HR MIN TEMP:  27; 6HR MAX TEMP:  33;

GRAND RAPIDS   CLOUDY    27  20  75 NW14      29.62R WCI  16
6HR MIN TEMP:  27; 6HR MAX TEMP:  33;

IONIA          LGT SNOW  27  23  87 NW8G16    29.59R WCI  18
6HR MIN TEMP:  27; 6HR MAX TEMP:  32;

KALAMAZOO      CLOUDY    29  24  82 NW13      29.61R WCI  19
6HR MIN TEMP:  29; 6HR MAX TEMP:  32; 6HR PCP: TRACE;

LUDINGTON      LGT SNOW  23  19  84 N10G18    29.68S WCI  13
6HR MIN TEMP:  23; 6HR MAX TEMP:  26;

MARSHALL       CLOUDY    30  27  86 NW6       29.57S WCI  24
6HR MIN TEMP:  30; 6HR MAX TEMP:  31;

MOUNT PLEASANT CLOUDY    27  22  80 NW12G18   29.58S WCI  16
MUSKEGON       FLURRIES  26  19  74 NW15      29.67R WCI  14
6HR MIN TEMP:  26; 6HR MAX TEMP:  30; 6HR PCP: TRACE;

SOUTH HAVEN    CLOUDY    28  24  84 N12G21    29.66R WCI  18
$$
MIZ016>042-091300-
NORTHERN LOWER MICHIGAN

CITY           SKY/WX    TMP DP  RH WIND       PRES   REMARKS
ALPENA         FLURRIES  27  23  85 NW14G22   29.54R WCI  16
6HR MIN TEMP:  27; 6HR MAX TEMP:  31; 6HR PCP:  0.05;

BEAVER ISLAND  CLOUDY    22  19  85 N7G16     29.65R WCI  14
6HR MIN TEMP:  22; 6HR MAX TEMP:  24;

BELLAIRE       CLOUDY    26  21  82 N5        29.64S WCI  20
6HR MIN TEMP:  26; 6HR MAX TEMP:  27;

CADILLAC       CLOUDY    24  20  86 NW14G20   29.58S WCI  11
CHARLEVOIX     CLOUDY    25  21  85 N13G20    29.66S WCI  13
6HR MIN TEMP:  25; 6HR MAX TEMP:  26;

FRANKFORT      CLOUDY    24  20  85 NW13G22   29.67S WCI  12
GAYLORD        LGT SNOW  23  20  88 NW12G20   29.56R FOG     WCI  12
6HR MIN TEMP:  23; 6HR MAX TEMP:  25; 6HR PCP:  0.01;

GRAYLING       CLOUDY    24  20  87 NW15G22   29.58R WCI  11
6HR MIN TEMP:  23; 6HR MAX TEMP:  28;

HARBOR SPRINGS CLOUDY    24  19  83 W6        29.62R WCI  17
HOUGHTON LAKE  LGT SNOW  24  20  84 NW14G21   29.57R FOG     WCI  12
6HR MIN TEMP:  24; 6HR MAX TEMP:  27; 6HR PCP:  0.01;

MANISTEE       CLOUDY    25  18  74 N12       29.67S WCI  14
OSCODA         LGT SNOW  27  25  93 NW15G21   29.50S WCI  15
6HR MIN TEMP:  27; 6HR MAX TEMP:  32;

PELLSTON       CLOUDY    23  19  85 NW15      29.61S WCI  10
6HR MIN TEMP:  23; 6HR MAX TEMP:  25; 6HR PCP: TRACE;

ROGERS CITY    LGT SNOW  27  24  89 NW9       29.57S WCI  17
TRAVERSE CITY  FLURRIES  27  20  75 N13       29.63S WCI  16
6HR MIN TEMP:  26; 6HR MAX TEMP:  27; 6HR PCP: TRACE;

$$
MIZ007>008-015-091300-
EASTERN UPPER MICHIGAN

CITY           SKY/WX    TMP DP  RH WIND       PRES   REMARKS
KINROSS        CLOUDY    27  27 100 NW13      29.57S WCI  16
6HR MIN TEMP:  25; 6HR MAX TEMP:  27;

MACKINAC ISLAN CLOUDY    24  24 100 NW10G16   29.59R WCI  13
6HR MIN TEMP:  24; 6HR MAX TEMP:  25;

NEWBERRY       CLOUDY    22  21  96 NW12      29.61S WCI  11
6HR MIN TEMP:  21; 6HR MAX TEMP:  23;

S. S. MARIE    LGT SNOW  28  25  88 W8        29.58R FOG     WCI  20
6HR MIN TEMP:  28; 6HR MAX TEMP:  29; 6HR PCP:  0.03;

$$
MIZ004>006-011>014-085-091300-
CENTRAL UPPER MICHIGAN

CITY           SKY/WX    TMP DP  RH WIND       PRES   REMARKS
MANISTIQUE     CLOUDY    21  15  80 NW14G22   29.65R WCI   8
6HR MIN TEMP:  20; 6HR MAX TEMP:  21;

ESCANABA       MOCLDY    16   7  67 NW9       29.72R WCI   4
6HR MIN TEMP:  12; 6HR MAX TEMP:  16;

MENOMINEE      CLOUDY    14   3  62 N12G21    29.76R WCI   0
6HR MIN TEMP:  14; 6HR MAX TEMP:  18;

SAWYER-GWINN   LGT SNOW  12   7  79 N17G25    29.70R WCI  -5
$$
MIZ001>003-009>011-084-091300-
WESTERN UPPER MICHIGAN

CITY           SKY/WX    TMP DP  RH WIND       PRES   REMARKS
IRON MOUNTAIN  LGT SNOW  11   4  73 NW15      29.73R VSB 1   WCI  -5
6HR MIN TEMP:  11; 6HR MAX TEMP:  13; 6HR PCP: TRACE;

HOUGHTON       CLOUDY    10   4  76 N17       29.80R HAZE    WCI  -8
6HR MIN TEMP:  10; 6HR MAX TEMP:  11; 6HR PCP: TRACE;

COPPER HARBOR    N/A     16  12  84 NE24G35   29.80R WCI  -2
6HR MIN TEMP:  15; 6HR MAX TEMP:  17;

IRONWOOD       CLOUDY    10   7  85 N17G23    29.84R VSB 1   WCI  -7
6HR MIN TEMP:  10; 6HR MAX TEMP:  12;

$$

ABBREVIATIONS USED IN REMARKS
   TC - TEMPERATURE IN CELSIUS
  WCI - WIND CHILL INDEX
   HX - HEAT INDEX
  VSB - VISIBILITY




USA.gov is the U.S. government's official web portal to all federal, state and local government web resources and services.